When you browse on this site, cookies collect data to enhance your experience and personalize the content and advertising you see.
Visit our Privacy Policy to learn more. By continuing to use the site, you agree to this use of cookies and data.
  • In Hungary
  • List of Countries
  • For 7 days
  • Water Temperature
  • Satellite Maps
  • Weather Map
  • News
  • Weather Widgets
  • user-avatar
    Login

    Hourly Weather Campobasso

    Today, 9 December, Sunday

    Time Temperature Precipitation Wind Pressure Humidity
    00:00 +4°C° 0 mm 3 mps 698 mmHg 73%
    01:00 +4°C° 0 mm 2 mps 699 mmHg 68%
    02:00 +4°C° 0 mm 2 mps 698 mmHg 66%
    03:00 +4°C° 0 mm 2 mps 698 mmHg 64%
    04:00 +4°C° 0 mm 2 mps 698 mmHg 62%
    05:00 +4°C° 0 mm 2 mps 698 mmHg 64%
    06:00 +4°C° 0 mm 2 mps 698 mmHg 66%
    07:00 +4°C° 0 mm 2 mps 698 mmHg 67%
    08:00 +4°C° 0 mm 3 mps 698 mmHg 64%
    09:00 +7°C° 0 mm 3 mps 697 mmHg 60%
    10:00 +7°C° 0 mm 4 mps 697 mmHg 56%
    11:00 +8°C° 0 mm 5 mps 697 mmHg 59%
    12:00 +9°C° 0 mm 5 mps 696 mmHg 62%
    13:00 +10°C° 0 mm 6 mps 696 mmHg 66%
    14:00 +10°C° 0 mm 5 mps 696 mmHg 70%
    15:00 +9°C° 0 mm 5 mps 695 mmHg 74%
    16:00 +10°C° 0 mm 4 mps 695 mmHg 79%
    17:00 +8°C° 0 mm 4 mps 695 mmHg 81%
    18:00 +8°C° 0 mm 3 mps 694 mmHg 84%
    19:00 +8°C° 0 mm 3 mps 694 mmHg 87%
    20:00 +7°C° 0 mm 3 mps 694 mmHg 86%
    21:00 +7°C° 0 mm 3 mps 694 mmHg 86%
    22:00 +5°C° 0 mm 3 mps 694 mmHg 85%
    23:00 +5°C° 0.2 mm 3 mps 694 mmHg 84%

    Tomorrow, 10 December, Monday

    Time Temperature Precipitation Wind Pressure Humidity
    00:00 +5°C° 0.2 mm 3 mps 695 mmHg 83%
    01:00 +5°C° 0.2 mm 3 mps 695 mmHg 81%
    02:00 +6°C° 0 mm 2 mps 695 mmHg 79%
    03:00 +5°C° 0 mm 2 mps 695 mmHg 77%
    04:00 +5°C° 0 mm 2 mps 695 mmHg 75%
    05:00 +5°C° 0 mm 2 mps 695 mmHg 72%
    06:00 +5°C° 0 mm 2 mps 695 mmHg 70%
    07:00 +5°C° 0 mm 2 mps 695 mmHg 68%
    08:00 +5°C° 0 mm 3 mps 696 mmHg 62%
    09:00 +8°C° 0 mm 3 mps 696 mmHg 57%
    10:00 +9°C° 0 mm 3 mps 697 mmHg 51%
    11:00 +10°C° 0.2 mm 4 mps 697 mmHg 51%
    12:00 +10°C° 0.2 mm 4 mps 697 mmHg 51%
    13:00 +9°C° 0.2 mm 5 mps 697 mmHg 51%
    14:00 +8°C° 0.6 mm 5 mps 697 mmHg 57%
    15:00 +7°C° 0.6 mm 5 mps 697 mmHg 62%
    16:00 +6°C° 0.6 mm 5 mps 697 mmHg 67%
    17:00 +6°C° 0.6 mm 4 mps 697 mmHg 71%
    18:00 +5°C° 0.6 mm 4 mps 698 mmHg 75%
    19:00 +4°C° 0.6 mm 3 mps 698 mmHg 79%
    20:00 +4°C° 0.2 mm 3 mps 698 mmHg 80%
    21:00 +4°C° 0.2 mm 2 mps 698 mmHg 80%
    22:00 +4°C° 0.2 mm 2 mps 699 mmHg 80%
    23:00 +4°C° 0.2 mm 2 mps 699 mmHg 79%

    Day after tomorrow, 11 December, Tuesday

    Time Temperature Precipitation Wind Pressure Humidity
    00:00 +3°C° 0.2 mm 2 mps 699 mmHg 79%
    01:00 +3°C° 0.2 mm 2 mps 699 mmHg 78%
    02:00 +3°C° 0.1 mm 2 mps 699 mmHg 78%
    03:00 +2°C° 0.1 mm 2 mps 699 mmHg 79%
    04:00 +3°C° 0.1 mm 1 mps 698 mmHg 79%
    05:00 +3°C° 0.1 mm 1 mps 698 mmHg 79%
    06:00 +3°C° 0.1 mm 1 mps 698 mmHg 78%
    07:00 +3°C° 0.1 mm 1 mps 699 mmHg 78%
    08:00 +4°C° 0 mm 1 mps 699 mmHg 71%
    09:00 +5°C° 0 mm 1 mps 699 mmHg 65%
    10:00 +6°C° 0 mm 2 mps 700 mmHg 58%
    11:00 +6°C° 0 mm 2 mps 700 mmHg 53%
    12:00 +7°C° 0 mm 3 mps 700 mmHg 48%
    13:00 +8°C° 0 mm 3 mps 700 mmHg 42%
    14:00 +7°C° 0.1 mm 3 mps 700 mmHg 48%
    15:00 +5°C° 0.1 mm 3 mps 700 mmHg 54%
    16:00 +4°C° 0.1 mm 3 mps 700 mmHg 60%
    17:00 +4°C° 0 mm 2 mps 700 mmHg 63%
    18:00 +4°C° 0 mm 2 mps 700 mmHg 66%
    19:00 +3°C° 0 mm 2 mps 700 mmHg 69%
    20:00 +2°C° 0 mm 2 mps 700 mmHg 69%
    21:00 +3°C° 0 mm 1 mps 701 mmHg 69%
    22:00 +3°C° 0 mm 1 mps 701 mmHg 69%
    23:00 +3°C° 0 mm 1 mps 701 mmHg 68%

    12 December, Wednesday

    Time Temperature Precipitation Wind Pressure Humidity
    00:00 +2°C° 0 mm 1 mps 701 mmHg 67%
    01:00 +2°C° 0 mm 1 mps 701 mmHg 65%
    02:00 +2°C° 0 mm 1 mps 701 mmHg 64%
    03:00 +2°C° 0 mm 1 mps 701 mmHg 62%
    04:00 +1°C° 0 mm 2 mps 700 mmHg 61%
    05:00 +1°C° 0 mm 2 mps 701 mmHg 60%
    06:00 +1°C° 0 mm 2 mps 701 mmHg 58%
    07:00 +1°C° 0 mm 2 mps 701 mmHg 57%
    08:00 +2°C° 0 mm 2 mps 701 mmHg 52%
    09:00 +4°C° 0 mm 2 mps 701 mmHg 47%
    10:00 +5°C° 0 mm 2 mps 702 mmHg 42%
    11:00 +6°C° 0 mm 2 mps 702 mmHg 40%
    12:00 +7°C° 0 mm 2 mps 701 mmHg 38%
    13:00 +7°C° 0 mm 2 mps 701 mmHg 36%
    14:00 +7°C° 0 mm 2 mps 701 mmHg 40%
    15:00 +6°C° 0 mm 2 mps 700 mmHg 44%
    16:00 +6°C° 0 mm 2 mps 700 mmHg 48%
    17:00 +5°C° 0.1 mm 2 mps 700 mmHg 51%
    18:00 +5°C° 0.1 mm 2 mps 700 mmHg 53%
    19:00 +4°C° 0.1 mm 2 mps 699 mmHg 55%
    20:00 +4°C° 0.1 mm 2 mps 699 mmHg 56%
    21:00 +4°C° 0.1 mm 2 mps 699 mmHg 57%
    22:00 +4°C° 0.1 mm 2 mps 699 mmHg 58%
    23:00 +4°C° 0.1 mm 2 mps 699 mmHg 59%

    13 December, Thursday

    Time Temperature Precipitation Wind Pressure Humidity
    00:00 +3°C° 0.1 mm 2 mps 698 mmHg 61%
    01:00 +3°C° 0.1 mm 2 mps 698 mmHg 63%
    02:00 +4°C° 0.3 mm 1 mps 698 mmHg 67%
    03:00 +4°C° 0.3 mm 1 mps 698 mmHg 71%
    04:00 +4°C° 0.3 mm 1 mps 697 mmHg 76%
    05:00 +4°C° 0 mm 1 mps 697 mmHg 78%
    06:00 +4°C° 0 mm 1 mps 697 mmHg 80%
    07:00 +4°C° 0 mm 1 mps 697 mmHg 82%
    08:00 +5°C° 0 mm 1 mps 698 mmHg 81%
    09:00 +6°C° 0 mm 1 mps 698 mmHg 79%
    10:00 +7°C° 0 mm 1 mps 698 mmHg 78%
    11:00 +8°C° 0 mm 1 mps 698 mmHg 76%
    12:00 +8°C° 0 mm 2 mps 698 mmHg 75%
    13:00 +8°C° 0 mm 2 mps 698 mmHg 73%
    14:00 +8°C° 0.1 mm 2 mps 698 mmHg 77%
    15:00 +8°C° 0.1 mm 1 mps 698 mmHg 80%
    16:00 +8°C° 0.1 mm 1 mps 697 mmHg 84%
    17:00 +8°C° 0.3 mm 1 mps 697 mmHg 86%
    18:00 +7°C° 0.3 mm 1 mps 697 mmHg 89%
    19:00 +7°C° 0.3 mm 1 mps 697 mmHg 92%
    20:00 +7°C° 0.7 mm 1 mps 697 mmHg 92%
    21:00 +7°C° 0.7 mm 1 mps 697 mmHg 93%
    22:00 +7°C° 0.7 mm 1 mps 697 mmHg 93%
    23:00 +7°C° 0.1 mm 1 mps 697 mmHg 93%

    14 December, Friday

    Time Temperature Precipitation Wind Pressure Humidity
    00:00 +8°C° 0.1 mm 1 mps 696 mmHg 93%
    01:00 +8°C° 0.1 mm 1 mps 696 mmHg 93%
    02:00 +7°C° 0 mm 1 mps 696 mmHg 93%
    03:00 +7°C° 0 mm 1 mps 695 mmHg 93%
    04:00 +7°C° 0 mm 1 mps 695 mmHg 93%
    05:00 +6°C° 0.2 mm 2 mps 694 mmHg 93%
    06:00 +6°C° 0.2 mm 2 mps 694 mmHg 92%
    07:00 +6°C° 0.2 mm 2 mps 694 mmHg 92%
    08:00 +7°C° 0.1 mm 3 mps 694 mmHg 86%
    09:00 +6°C° 0.1 mm 4 mps 695 mmHg 80%
    10:00 +7°C° 0.1 mm 5 mps 695 mmHg 75%
    11:00 +8°C° 0.1 mm 5 mps 695 mmHg 70%
    12:00 +8°C° 0.1 mm 5 mps 694 mmHg 65%
    13:00 +8°C° 0.1 mm 5 mps 694 mmHg 60%
    14:00 +7°C° 0.2 mm 5 mps 695 mmHg 64%
    15:00 +7°C° 0.2 mm 5 mps 695 mmHg 68%
    16:00 +6°C° 0.2 mm 5 mps 695 mmHg 71%
    17:00 +5°C° 0.1 mm 4 mps 695 mmHg 73%
    18:00 +4°C° 0.1 mm 4 mps 696 mmHg 76%
    19:00 +3°C° 0.1 mm 4 mps 696 mmHg 78%
    20:00 +3°C° 0 mm 3 mps 696 mmHg 77%
    21:00 +2°C° 0 mm 3 mps 696 mmHg 77%
    22:00 +3°C° 0 mm 2 mps 697 mmHg 76%
    23:00 +3°C° 0 mm 2 mps 697 mmHg 75%
    Show more